Chattanooga, TN

1:06 AM EST on February 23, 2017 (GMT -0500)
Lovell

Weather History for KCHA - March, 2013

Change the Weather History Date:

Monday, March 11, 2013

  Actual Average Record
Temperature  
Mean Temperature 53 °F 51 °F  
Max Temperature 62 °F 62 °F 81 °F (1990)
Min Temperature 43 °F 40 °F 20 °F (1934)
Degree Days  
Heating Degree Days 12 14  
Month to date heating degree days 228 172  
Since 1 July heating degree days 2544 2794  
Cooling Degree Days 0 0  
Month to date cooling degree days 0 0  
Year to date cooling degree days 2 0  
Growing Degree Days 3 (Base 50)    
Moisture  
Dew Point 51 °F    
Average Humidity 74    
Maximum Humidity 100    
Minimum Humidity 48    
Precipitation  
Precipitation 0.88 in 0.16 in 2.85 in (1963)
Month to date precipitation 1.31 1.78  
Year to date precipitation 14.99 11.53  
Snow  
Snow 0.00 in 0.10 in - ()
Month to date snowfall T 0.6  
Since 1 July snowfall 0.3 3.2  
Snow Depth 0.00 in    
Sea Level Pressure  
Sea Level Pressure 29.87 in    
Wind  
Wind Speed 10 mph (SSW)    
Max Wind Speed 21 mph    
Max Gust Speed 30 mph    
Visibility 7 miles    
Events Rain    
T = Trace of Precipitation, MM = Missing Value Source: NWS Daily Summary

Daily Weather History Graph

Daily Weather History Graph

Search for Another Location

Airport or City:

Trip Planner

Search our weather history database for the weather conditions in past years. The results will help you decide how hot, cold, wet, or windy it might be!

Date:

Astronomy

Mar. 11, 2013 Rise Set
Actual Time 7:56 AM EDT 7:45 PM EDT
Civil Twilight 7:31 AM EDT 8:10 PM EDT
Nautical Twilight 7:02 AM EDT 8:39 PM EDT
Astronomical Twilight 6:32 AM EDT 9:09 PM EDT
Moon 7:31 AM EDT (3/11) 7:54 PM EDT (3/11)
Length of Visible Light 12h 39m
Length of Day
11h 48m
Waning Crescent, 0% of the Moon is Illuminated
Mar 11
Waning Crescent
Mar 11
New
Mar 19
First Quarter
Mar 27
Full
Apr 3
Last Quarter

Hourly Weather History & Observations

Time (EDT) Temp. Windchill Dew Point Humidity Pressure Visibility Wind Dir Wind Speed Gust Speed Precip Events Conditions
12:53 AM 62.1 °F - 42.1 °F 48% 29.98 in 10.0 mi SSE 11.5 mph 21.9 mph N/A   Overcast
1:53 AM 62.1 °F - 44.1 °F 52% 29.96 in 10.0 mi South 9.2 mph 20.7 mph N/A   Mostly Cloudy
2:53 AM 61.0 °F - 46.0 °F 58% 29.96 in 10.0 mi South 9.2 mph 19.6 mph N/A   Partly Cloudy
3:53 AM 60.1 °F - 48.0 °F 64% 29.95 in 10.0 mi South 10.4 mph 20.7 mph N/A   Partly Cloudy
4:53 AM 60.1 °F - 48.9 °F 67% 29.93 in 10.0 mi SSE 11.5 mph 20.7 mph N/A   Clear
5:53 AM 59.0 °F - 50.0 °F 72% 29.89 in 10.0 mi SE 18.4 mph 29.9 mph N/A   Mostly Cloudy
6:53 AM 59.0 °F - 50.0 °F 72% 29.91 in 10.0 mi SSE 13.8 mph 24.2 mph N/A   Mostly Cloudy
7:39 AM 59.0 °F - 51.8 °F 77% 29.91 in 10.0 mi SSE 12.7 mph 20.7 mph N/A   Mostly Cloudy
7:53 AM 59.0 °F - 51.1 °F 75% 29.90 in 10.0 mi SSE 15.0 mph 23.0 mph N/A   Mostly Cloudy
8:53 AM 59.0 °F - 52.0 °F 78% 29.88 in 10.0 mi South 15.0 mph 25.3 mph 0.00 in   Overcast
9:53 AM 59.0 °F - 52.0 °F 78% 29.87 in 10.0 mi South 15.0 mph 23.0 mph 0.00 in Rain Light Rain
10:53 AM 61.0 °F - 52.0 °F 72% 29.84 in 10.0 mi SSE 11.5 mph 23.0 mph N/A   Overcast
11:53 AM 60.1 °F - 53.1 °F 78% 29.86 in 5.0 mi South 10.4 mph 21.9 mph 0.01 in Rain Light Rain
12:10 PM 57.2 °F - 53.6 °F 88% 29.89 in 1.2 mi WSW 6.9 mph - 0.00 in Rain Heavy Rain
12:26 PM 57.2 °F - 55.4 °F 94% 29.87 in 3.0 mi Variable 3.5 mph - 0.09 in Rain Rain
12:47 PM 57.2 °F - 55.4 °F 94% 29.86 in 2.5 mi South 6.9 mph - 0.15 in Rain Rain
12:53 PM 57.0 °F - 55.0 °F 93% 29.85 in 2.5 mi South 5.8 mph - 0.16 in Rain Rain
1:00 PM 57.2 °F - 55.4 °F 94% 29.84 in 3.0 mi South 3.5 mph - 0.01 in Rain Rain
1:21 PM 57.2 °F - 55.4 °F 94% 29.86 in 2.0 mi WSW 6.9 mph - 0.03 in Rain Heavy Rain
1:30 PM 57.2 °F - 55.4 °F 94% 29.85 in 1.5 mi WSW 4.6 mph - 0.07 in Rain Heavy Rain
1:49 PM 57.2 °F - 55.4 °F 94% 29.88 in 1.2 mi WSW 10.4 mph - 0.11 in Rain Rain
1:53 PM 57.0 °F - 55.9 °F 96% 29.87 in 1.0 mi WSW 8.1 mph - 0.17 in Rain Heavy Rain
2:04 PM 55.4 °F - 55.4 °F 100% 29.86 in 2.0 mi WSW 4.6 mph - 0.12 in Rain Rain
2:11 PM 57.2 °F - 55.4 °F 94% 29.86 in 3.0 mi SW 5.8 mph - 0.13 in Rain Rain
2:17 PM 57.2 °F - 55.4 °F 94% 29.85 in 6.0 mi South 3.5 mph - 0.14 in Rain Light Rain
2:53 PM 55.9 °F - 55.0 °F 97% 29.83 in 5.0 mi SSE 3.5 mph - 0.20 in Rain Rain
3:38 PM 55.4 °F - 55.4 °F 100% 29.84 in 2.5 mi Calm Calm - 0.10 in Rain Heavy Rain
3:50 PM 55.4 °F - 53.6 °F 94% 29.83 in 3.0 mi Calm Calm - 0.15 in Rain Rain
3:53 PM 55.9 °F - 54.0 °F 93% 29.83 in 3.0 mi Calm Calm - 0.16 in Rain Rain
4:53 PM 54.0 °F - 53.1 °F 97% 29.74 in 4.0 mi SE 16.1 mph 23.0 mph 0.17 in Rain Rain
5:14 PM 55.4 °F - 53.6 °F 94% 29.79 in 10.0 mi Variable 4.6 mph - 0.01 in   Overcast
5:53 PM 55.0 °F - 53.1 °F 93% 29.80 in 10.0 mi South 6.9 mph - 0.01 in   Overcast
6:23 PM 55.4 °F - 53.6 °F 94% 29.82 in 10.0 mi SW 6.9 mph - N/A   Overcast
6:53 PM 51.8 °F - 48.2 °F 88% 29.83 in 10.0 mi West 5.8 mph - N/A   Mostly Cloudy
7:30 PM 51.8 °F - 48.2 °F 88% 29.83 in 10.0 mi West 9.2 mph - N/A   Mostly Cloudy
7:44 PM 51.8 °F - 48.2 °F 88% 29.84 in 10.0 mi WSW 6.9 mph - N/A   Mostly Cloudy
7:53 PM 51.1 °F - 48.0 °F 89% 29.85 in 10.0 mi Calm Calm - N/A   Mostly Cloudy
8:53 PM 50.0 °F - 46.0 °F 86% 29.86 in 10.0 mi West 11.5 mph - N/A   Overcast
9:53 PM 46.9 °F - 41.0 °F 80% 29.88 in 10.0 mi West 9.2 mph - N/A   Mostly Cloudy
10:42 PM 46.4 °F 41.9 °F 39.2 °F 76% 29.91 in 10.0 mi WNW 9.2 mph - N/A   Partly Cloudy
10:53 PM 45.0 °F 40.6 °F 39.0 °F 80% 29.91 in 10.0 mi NW 8.1 mph - N/A   Partly Cloudy
11:53 PM 44.1 °F 40.1 °F 37.9 °F 79% 29.93 in 10.0 mi NW 6.9 mph - N/A   Mostly Cloudy